This demonstration page uses our WeatherBlox Daily Observations layout. Learn more.

Left ArrowRight Arrow

34.16533, -84.80231

Hourly Observations for October 5, 2021

Temp ( °F °C ) Dew Point ( °F °C ) Humidity (%) Winds ( mph kmh ) Pressure ( in mb ) Visibility ( mi km ) Precip ( " mm )
12:15 am 00:15 undefined N/A N/A N/A undefined N/A N/A N/A N/A
12:35 am 00:35 undefined N/A N/A N/A undefined N/A N/A N/A N/A
12:55 am 00:55 undefined N/A N/A N/A undefined N/A N/A N/A N/A
1:15 am 01:15 undefined N/A N/A N/A undefined N/A N/A N/A N/A
1:35 am 01:35 undefined N/A N/A N/A undefined N/A N/A N/A N/A
1:55 am 01:55 undefined N/A N/A N/A undefined N/A N/A N/A N/A
2:15 am 02:15 undefined N/A N/A N/A undefined N/A N/A N/A N/A
2:35 am 02:35 undefined N/A N/A N/A undefined N/A N/A N/A N/A
2:55 am 02:55 undefined N/A N/A N/A undefined N/A N/A N/A N/A
3:15 am 03:15 undefined N/A N/A N/A undefined N/A N/A N/A N/A
3:35 am 03:35 undefined N/A N/A N/A undefined N/A N/A N/A N/A
3:55 am 03:55 undefined N/A N/A N/A undefined N/A N/A N/A N/A
4:15 am 04:15 undefined N/A N/A N/A undefined N/A N/A N/A N/A
4:35 am 04:35 undefined N/A N/A N/A undefined N/A N/A N/A N/A
4:55 am 04:55 undefined N/A N/A N/A undefined N/A N/A N/A N/A
5:15 am 05:15 undefined N/A N/A N/A undefined N/A N/A N/A N/A
5:35 am 05:35 undefined N/A N/A N/A undefined N/A N/A N/A N/A
5:55 am 05:55 undefined N/A N/A N/A undefined N/A N/A N/A N/A
6:15 am 06:15 undefined N/A N/A N/A undefined N/A N/A N/A N/A
6:35 am 06:35 undefined N/A N/A N/A undefined N/A N/A N/A N/A
6:55 am 06:55 undefined N/A N/A N/A undefined N/A N/A N/A N/A
7:15 am 07:15 undefined N/A N/A N/A undefined N/A N/A N/A N/A
7:35 am 07:35 undefined N/A N/A N/A undefined N/A N/A N/A N/A
7:55 am 07:55 undefined N/A N/A N/A undefined N/A N/A N/A N/A
8:15 am 08:15 undefined N/A N/A N/A undefined N/A N/A N/A N/A
8:35 am 08:35 undefined N/A N/A N/A undefined N/A N/A N/A N/A
8:55 am 08:55 undefined N/A N/A N/A undefined N/A N/A N/A N/A
9:35 am 09:35 Partly Cloudy with Light Rain 66 19 66 19 100 100 ESE 5 7 30.06 1018 6 10 N/A
9:55 am 09:55 Partly Cloudy with Light Rain 66 19 66 19 100 100 N N/A 30.06 1018 5 8 0.03 0.76
10:15 am 10:15 Sunny with Light Rain 66 19 66 19 100 100 N N/A 30.07 1018 3 5 N/A
10:35 am 10:35 Mostly Cloudy with Light Rain 66 19 66 19 100 100 N N/A 30.08 1019 6 10 N/A
10:55 am 10:55 Mostly Cloudy with Light Rain 66 19 66 19 100 100 N N/A 30.09 1019 6 10 0.04 1.02
11:15 am 11:15 Mostly Cloudy with Light Rain 68 20 66 19 94 94 N N/A 30.10 1019 6 10 N/A
11:35 am 11:35 Cloudy with Light Rain 68 20 66 19 94 94 N N/A 30.11 1020 4 6 N/A
11:55 am 11:55 Mostly Cloudy with Light Rain 68 20 66 19 94 94 N N/A 30.11 1020 5 8 0.04 1.02
12:15 pm 12:15 Partly Cloudy with Light Rain 66 19 64 18 94 94 E 5 7 30.10 1019 7 11 N/A
12:35 pm 12:35 Partly Cloudy with Light Rain 68 20 66 19 94 94 NE 5 7 30.09 1019 6 10 N/A
12:55 pm 12:55 Partly Cloudy with Light Rain 68 20 66 19 94 94 VRB 5 7 30.09 1019 6 10 0.02 0.51
1:15 pm 13:15 Sunny 68 20 66 19 94 94 VRB 6 9 30.09 1019 10 16 N/A
1:55 pm 13:55 Mostly Cloudy 70 21 66 19 88 88 VRB 5 7 30.08 1019 10 16 N/A
2:15 pm 14:15 Mostly Cloudy 70 21 66 19 88 88 VRB 5 7 30.07 1018 10 16 N/A
2:35 pm 14:35 Cloudy 70 21 66 19 88 88 ESE 8 13 30.06 1018 10 16 N/A
2:55 pm 14:55 Cloudy 70 21 66 19 88 88 E 6 9 30.04 1017 10 16 N/A
3:15 pm 15:15 Mostly Cloudy 72 22 66 19 83 83 E 9 15 30.04 1017 10 16 N/A
3:35 pm 15:35 Mostly Cloudy 72 22 66 19 83 83 VRB 7 11 30.03 1017 10 16 N/A
3:55 pm 15:55 Mostly Cloudy 72 22 66 19 83 83 E 9 15 30.03 1017 10 16 N/A
4:15 pm 16:15 Mostly Cloudy 72 22 66 19 83 83 E 8 13 30.03 1017 10 16 N/A
4:35 pm 16:35 Mostly Cloudy 72 22 66 19 83 83 E 7 11 30.03 1017 10 16 N/A
4:55 pm 16:55 Cloudy 72 22 66 19 83 83 VRB 7 11 30.03 1017 10 16 N/A
5:15 pm 17:15 Cloudy 72 22 66 19 83 83 ESE 10 17 30.04 1017 10 16 N/A
5:35 pm 17:35 Cloudy 72 22 66 19 83 83 VRB 6 9 30.04 1017 10 16 N/A
5:55 pm 17:55 Cloudy 72 22 66 19 83 83 E 8 13 30.04 1017 10 16 N/A
6:15 pm 18:15 Cloudy 70 21 66 19 88 88 E 5 7 30.04 1017 10 16 N/A
6:35 pm 18:35 Cloudy 70 21 66 19 88 88 VRB 3 6 30.04 1017 10 16 N/A
6:55 pm 18:55 Cloudy 70 21 66 19 88 88 ESE 5 7 30.04 1017 10 16 N/A
7:15 pm 19:15 Mostly Cloudy 70 21 66 19 88 88 E 5 7 30.05 1018 10 16 N/A
7:35 pm 19:35 Cloudy 70 21 66 19 88 88 ESE 6 9 30.05 1018 10 16 N/A
7:55 pm 19:55 Cloudy 70 21 66 19 88 88 ESE 7 11 30.05 1018 10 16 N/A
8:15 pm 20:15 Cloudy with Light Rain 70 21 68 20 94 94 E 7 11 30.06 1018 8 13 N/A
8:35 pm 20:35 Cloudy 70 21 68 20 94 94 VRB 7 11 30.06 1018 9 14 N/A
8:55 pm 20:55 Cloudy 70 21 68 20 94 94 VRB 5 7 30.06 1018 10 16 N/A
9:15 pm 21:15 Cloudy 70 21 68 20 94 94 VRB 6 9 30.06 1018 10 16 N/A
9:35 pm 21:35 Cloudy 70 21 68 20 94 94 VRB 5 7 30.07 1018 10 16 N/A
9:55 pm 21:55 Cloudy 70 21 68 20 94 94 E 6 9 30.07 1018 10 16 N/A
10:15 pm 22:15 Cloudy 70 21 68 20 94 94 ESE 7 11 30.08 1019 9 14 N/A
10:35 pm 22:35 Cloudy 70 21 68 20 94 94 ESE 6 9 30.08 1019 10 16 N/A
10:55 pm 22:55 Cloudy 70 21 68 20 94 94 VRB 6 9 30.08 1019 10 16 N/A
11:15 pm 23:15 Cloudy 70 21 68 20 94 94 E 8 13 30.08 1019 10 16 N/A
11:35 pm 23:35 Cloudy 70 21 68 20 94 94 VRB 5 7 30.08 1019 10 16 N/A
11:55 pm 23:55 Cloudy 70 21 68 20 94 94 VRB 5 7 30.08 1019 10 16 N/A

Powered by AerisWeather